.
WxDataArchive / Data Records for 2015-01-23
2015-01-22 January 2015 2015-01-24

Data Records for Friday, 23 January 2015

Time	Temp	Chill	HIndex	Humid	Dewpt	 Wind 	HiWind	WindDir	Rain 	Barom
-----	----	-----	------	-----	-----	------	------	-------	-----	-----
00:00	29.4	29.4	29.4	71	21.2	0	1	338	0.00	30.407 
00:05	29.4	29.4	29.4	71	21.2	0	1	338	0.00	30.407 
00:10	29.4	29.4	29.4	71	21.2	0	1	338	0.00	30.407 
00:15	29.4	29.4	29.4	71	21.2	0	1	338	0.00	30.407 
00:20	29.4	29.4	29.4	70	20.8	0	1	338	0.00	30.407 
00:25	29.4	29.4	29.4	70	20.8	0	1	338	0.00	30.407 
00:30	29.4	29.4	29.4	70	20.8	0	1	338	0.00	30.408 
00:35	29.4	29.4	29.4	70	20.8	0	1	338	0.00	30.408 
00:40	29.4	29.4	29.4	70	20.8	0	1	338	0.00	30.408 
00:45	29.4	29.4	29.4	70	20.8	0	2	338	0.00	30.404 
00:50	29.4	29.4	29.4	70	20.8	0	0	---	0.00	30.404 
00:55	29.4	29.4	29.4	71	21.2	0	1	338	0.00	30.404 
01:00	29.4	29.4	29.4	71	21.2	0	2	338	0.00	30.394 
01:05	29.4	29.4	29.4	71	21.2	0	1	338	0.00	30.394 
01:10	29.3	29.3	29.3	71	21.1	0	1	338	0.00	30.394 
01:15	29.3	29.3	29.3	71	21.1	0	2	338	0.00	30.390 
01:20	29.3	29.3	29.3	71	21.1	0	3	248	0.00	30.390 
01:25	29.1	29.1	29.1	71	20.9	0	1	248	0.00	30.390 
01:30	29.1	29.1	29.1	71	20.9	0	1	248	0.00	30.390 
01:35	29.1	29.1	29.1	72	21.2	0	2	248	0.00	30.390 
01:40	29.1	29.1	29.1	72	21.2	0	1	248	0.00	30.390 
01:45	29.0	29.0	29.0	72	21.1	0	1	248	0.00	30.390 
01:50	29.0	29.0	29.0	72	21.1	0	1	248	0.00	30.390 
01:55	29.0	29.0	29.0	73	21.4	0	1	248	0.00	30.390 
02:00	29.0	29.0	29.0	73	21.4	0	2	248	0.00	30.378 
02:05	29.0	29.0	29.0	73	21.4	0	1	248	0.00	30.378 
02:10	28.8	28.8	28.8	73	21.3	0	2	248	0.00	30.378 
02:15	28.8	28.8	28.8	73	21.3	0	1	248	0.00	30.374 
02:20	28.8	28.8	28.8	73	21.3	0	1	248	0.00	30.374 
02:25	28.7	28.7	28.7	73	21.2	0	3	248	0.00	30.374 
02:30	28.7	28.7	28.7	73	21.2	0	1	248	0.00	30.363 
02:35	28.7	28.7	28.7	73	21.2	0	1	248	0.00	30.363 
02:40	28.5	28.5	28.5	74	21.3	0	1	248	0.00	30.363 
02:45	28.5	28.5	28.5	73	21.0	0	1	248	0.00	30.363 
02:50	28.5	28.5	28.5	73	21.0	0	1	248	0.00	30.363 
02:55	28.4	28.4	28.4	73	20.9	0	0	---	0.00	30.363 
03:00	28.4	28.4	28.4	73	20.9	0	1	248	0.00	30.362 
03:05	28.4	28.4	28.4	73	20.9	0	1	248	0.00	30.362 
03:10	28.4	28.4	28.4	74	21.2	0	1	248	0.00	30.362 
03:15	28.4	28.4	28.4	74	21.2	0	1	248	0.00	30.366 
03:20	28.4	28.4	28.4	74	21.2	0	2	248	0.00	30.366 
03:25	28.4	28.4	28.4	74	21.2	0	2	248	0.00	30.366 
03:30	28.4	28.4	28.4	74	21.2	0	2	248	0.00	30.368 
03:35	28.4	28.4	28.4	75	21.5	0	1	248	0.00	30.368 
03:40	28.4	28.4	28.4	75	21.5	0	1	248	0.00	30.368 
03:45	28.4	28.4	28.4	75	21.5	0	1	248	0.00	30.346 
03:50	28.4	28.4	28.4	75	21.5	0	1	248	0.00	30.346 
03:55	28.4	28.4	28.4	75	21.5	0	2	248	0.00	30.346 
04:00	28.4	28.4	28.4	75	21.5	0	1	248	0.00	30.348 
04:05	28.4	28.4	28.4	75	21.5	0	2	248	0.00	30.348 
04:10	28.4	28.4	28.4	75	21.5	0	2	248	0.00	30.348 
04:15	28.4	28.4	28.4	75	21.5	0	2	248	0.00	30.344 
04:20	28.4	28.4	28.4	75	21.5	0	2	248	0.00	30.344 
04:25	28.4	28.4	28.4	75	21.5	0	2	248	0.00	30.344 
04:30	28.4	28.4	28.4	75	21.5	0	2	248	0.00	30.330 
04:35	28.4	28.4	28.4	76	21.8	0	1	248	0.00	30.330 
04:40	28.4	28.4	28.4	76	21.8	0	1	248	0.00	30.330 
04:45	28.4	28.4	28.4	76	21.8	0	2	248	0.00	30.327 
04:50	28.4	28.4	28.4	76	21.8	0	1	248	0.00	30.327 
04:55	28.4	28.4	28.4	76	21.8	0	1	248	0.00	30.327 
05:00	28.4	28.4	28.4	76	21.8	0	1	248	0.00	30.327 
05:05	28.4	28.4	28.4	76	21.8	0	0	---	0.00	30.327 
05:10	28.4	28.4	28.4	76	21.8	0	1	248	0.00	30.327 
05:15	28.4	28.4	28.4	77	22.1	0	2	248	0.00	30.330 
05:20	28.4	28.4	28.4	77	22.1	0	1	248	0.00	30.330 
05:25	28.4	28.4	28.4	77	22.1	0	2	248	0.00	30.330 
05:30	28.4	28.4	28.4	77	22.1	0	1	248	0.00	30.326 
05:35	28.2	28.2	28.2	76	21.6	0	1	248	0.00	30.326 
05:40	28.2	28.2	28.2	76	21.6	0	2	248	0.00	30.326 
05:45	28.2	28.2	28.2	77	21.9	0	2	248	0.00	30.315 
05:50	28.2	28.2	28.2	77	21.9	0	1	248	0.00	30.315 
05:55	28.2	28.2	28.2	77	21.9	0	2	248	0.00	30.315 
06:00	28.2	28.2	28.2	77	21.9	0	2	248	0.00	30.313 
06:05	28.2	28.2	28.2	77	21.9	0	2	248	0.00	30.313 
06:10	28.2	28.2	28.2	77	21.9	0	1	248	0.00	30.313 
06:15	28.2	28.2	28.2	77	21.9	0	2	248	0.00	30.305 
06:20	28.2	28.2	28.2	77	21.9	0	1	248	0.00	30.305 
06:25	28.2	28.2	28.2	77	21.9	0	1	248	0.00	30.305 
06:30	28.2	28.2	28.2	77	21.9	0	1	248	0.00	30.299 
06:35	28.2	28.2	28.2	77	21.9	0	0	---	0.00	30.299 
06:40	28.2	28.2	28.2	77	21.9	0	1	248	0.00	30.299 
06:45	28.2	28.2	28.2	77	21.9	0	1	248	0.00	30.296 
06:50	28.2	28.2	28.2	77	21.9	0	1	248	0.00	30.296 
06:55	28.2	28.2	28.2	77	21.9	0	2	248	0.00	30.296 
07:00	28.2	28.2	28.2	77	21.9	0	2	248	0.00	30.294 
07:05	28.1	28.1	28.1	77	21.8	0	1	248	0.00	30.294 
07:10	28.1	28.1	28.1	77	21.8	0	1	248	0.00	30.294 
07:15	28.1	28.1	28.1	77	21.8	0	1	248	0.00	30.288 
07:20	28.1	28.1	28.1	77	21.8	0	3	248	0.00	30.288 
07:25	27.9	27.9	27.9	77	21.6	0	2	248	0.00	30.288 
07:30	27.9	27.9	27.9	77	21.6	0	1	248	0.00	30.287 
07:35	27.9	27.9	27.9	77	21.6	0	3	248	0.00	30.287 
07:40	27.9	27.9	27.9	77	21.6	0	2	248	0.00	30.287 
07:45	27.9	27.9	27.9	77	21.6	0	3	248	0.00	30.286 
07:50	27.9	27.9	27.9	77	21.6	0	2	270	0.00	30.286 
07:55	27.8	27.8	27.8	77	21.5	0	1	270	0.00	30.286 
08:00	27.9	27.9	27.9	77	21.6	0	1	270	0.00	30.286 
08:05	27.9	27.9	27.9	77	21.6	0	2	270	0.00	30.286 
08:10	27.9	27.9	27.9	77	21.6	0	1	270	0.00	30.286 
08:15	27.9	27.9	27.9	77	21.6	0	2	270	0.00	30.283 
08:20	27.8	27.8	27.8	77	21.5	1	3	270	0.00	30.283 
08:25	27.8	27.8	27.8	77	21.5	0	3	270	0.00	30.283 
08:30	27.8	27.8	27.8	77	21.5	0	2	270	0.00	30.281 
08:35	27.8	27.8	27.8	77	21.5	0	2	270	0.00	30.281 
08:40	27.9	27.9	27.9	77	21.6	0	1	270	0.00	30.281 
08:45	27.9	27.9	27.9	77	21.6	0	3	270	0.00	30.272 
08:50	27.8	27.8	27.8	77	21.5	1	3	270	0.00	30.272 
08:55	27.8	27.8	27.8	77	21.5	0	2	270	0.00	30.272 
09:00	27.8	27.8	27.8	77	21.5	0	1	270	0.00	30.268 
09:05	27.9	27.9	27.9	77	21.6	0	2	270	0.00	30.268 
09:10	27.9	27.9	27.9	78	21.9	0	2	270	0.00	30.268 
09:15	28.1	28.1	28.1	78	22.1	0	2	270	0.00	30.267 
09:20	28.1	28.1	28.1	77	21.8	0	3	270	0.00	30.267 
09:25	28.1	28.1	28.1	77	21.8	0	2	270	0.00	30.267 
09:30	28.1	28.1	28.1	77	21.8	0	3	270	0.00	30.260 
09:35	28.1	28.1	28.1	77	21.8	0	2	270	0.00	30.260 
09:40	28.1	28.1	28.1	77	21.8	0	1	270	0.00	30.260 
09:45	28.2	28.2	28.2	78	22.2	0	1	270	0.00	30.253 
09:50	28.4	28.4	28.4	78	22.4	0	1	270	0.00	30.253 
09:55	28.4	28.4	28.4	78	22.4	0	1	270	0.00	30.253 
10:00	28.5	28.5	28.5	77	22.2	0	2	270	0.00	30.252 
10:05	28.5	28.5	28.5	77	22.2	0	2	270	0.00	30.252 
10:10	28.5	28.5	28.5	77	22.2	0	1	270	0.00	30.252 
10:15	28.5	28.5	28.5	77	22.2	0	1	270	0.00	30.246 
10:20	28.7	28.7	28.7	77	22.4	0	1	270	0.00	30.246 
10:25	28.7	28.7	28.7	77	22.4	0	1	270	0.00	30.246 
10:30	28.7	28.7	28.7	77	22.4	0	1	270	0.00	30.234 
10:35	28.8	28.8	28.8	77	22.5	0	2	270	0.00	30.234 
10:40	28.8	28.8	28.8	76	22.2	0	2	270	0.00	30.234 
10:45	28.7	28.7	28.7	76	22.1	0	2	270	0.00	30.238 
10:50	28.5	28.5	28.5	76	21.9	0	2	270	0.00	30.238 
10:55	28.5	28.5	28.5	76	21.9	0	1	270	0.00	30.238 
11:00	28.5	28.5	28.5	76	21.9	0	2	270	0.00	30.231 
11:05	28.5	28.5	28.5	76	21.9	0	2	270	0.00	30.231 
11:10	28.7	28.7	28.7	76	22.1	0	2	270	0.00	30.231 
11:15	28.7	28.7	28.7	75	21.8	0	2	270	0.00	30.222 
11:20	28.7	28.7	28.7	75	21.8	0	3	270	0.00	30.222 
11:25	28.8	28.8	28.8	75	21.9	0	2	270	0.00	30.222 
11:30	29.0	29.0	29.0	75	22.1	0	2	270	0.00	30.207 
11:35	29.0	29.0	29.0	75	22.1	0	1	270	0.00	30.207 
11:40	29.1	29.1	29.1	75	22.2	0	2	270	0.00	30.207 
11:45	29.4	29.4	29.4	75	22.5	0	1	270	0.00	30.194 
11:50	29.5	29.5	29.5	74	22.3	0	1	270	0.00	30.194 
11:55	29.7	29.7	29.7	74	22.4	0	1	270	0.00	30.194 
12:00	29.8	29.8	29.8	74	22.5	0	3	270	0.00	30.186 
12:05	29.8	29.8	29.8	73	22.2	0	2	270	0.00	30.186 
12:10	30.0	30.0	30.0	73	22.4	0	1	270	0.00	30.186 
12:15	30.1	30.1	30.1	73	22.5	0	1	270	0.00	30.174 
12:20	30.1	30.1	30.1	72	22.2	1	3	270	0.00	30.174 
12:25	29.8	29.8	29.8	72	21.9	1	3	270	0.00	30.174 
12:30	29.8	29.8	29.8	72	21.9	0	1	270	0.00	30.168 
12:35	30.1	30.1	30.1	73	22.5	0	2	270	0.00	30.168 
12:40	30.3	30.3	30.3	72	22.4	0	2	270	0.00	30.168 
12:45	30.6	30.6	30.6	71	22.3	0	1	270	0.00	30.163 
12:50	30.9	30.9	30.9	72	23.0	0	3	338	0.00	30.163 
12:55	31.2	31.2	31.2	70	22.6	0	3	338	0.00	30.163 
13:00	31.2	31.2	31.2	69	22.2	1	3	270	0.00	30.152 
13:05	30.9	30.9	30.9	69	21.9	1	3	270	0.00	30.152 
13:10	31.0	31.0	31.0	71	22.7	1	3	270	0.00	30.152 
13:15	30.9	30.9	30.9	70	22.3	1	3	248	0.00	30.136 
13:20	30.9	30.9	30.9	70	22.3	0	3	202	0.00	30.136 
13:25	30.9	30.9	30.9	70	22.3	0	3	248	0.00	30.136 
13:30	31.0	31.0	31.0	71	22.7	0	2	248	0.00	30.124 
13:35	30.9	30.9	30.9	69	21.9	1	3	248	0.00	30.124 
13:40	30.9	30.9	30.9	70	22.3	0	2	248	0.00	30.124 
13:45	30.9	30.9	30.9	70	22.3	1	4	248	0.00	30.115 
13:50	31.0	31.0	31.0	70	22.4	0	2	248	0.00	30.115 
13:55	31.0	31.0	31.0	70	22.4	0	2	248	0.00	30.115 
14:00	31.0	31.0	31.0	70	22.4	0	2	248	0.00	30.107 
14:05	31.2	31.2	31.2	70	22.6	0	2	248	0.00	30.107 
14:10	31.2	31.2	31.2	69	22.2	1	5	248	0.00	30.107 
14:15	30.9	30.9	30.9	69	21.9	0	2	248	0.00	30.104 
14:20	30.9	30.9	30.9	70	22.3	0	1	248	0.00	30.104 
14:25	31.0	31.0	31.0	70	22.4	0	2	248	0.00	30.104 
14:30	31.0	31.0	31.0	70	22.4	0	2	248	0.00	30.093 
14:35	31.2	31.2	31.2	70	22.6	0	2	248	0.00	30.093 
14:40	31.2	31.2	31.2	69	22.2	1	3	248	0.00	30.093 
14:45	31.2	31.2	31.2	70	22.6	0	2	248	0.00	30.088 
14:50	31.3	31.3	31.3	70	22.7	0	2	248	0.00	30.088 
14:55	31.5	31.5	31.5	69	22.5	1	3	248	0.00	30.088 
15:00	31.5	31.5	31.5	69	22.5	0	2	248	0.00	30.080 
15:05	31.3	31.3	31.3	69	22.3	1	2	248	0.00	30.080 
15:10	31.2	31.2	31.2	69	22.2	1	3	248	0.00	30.080 
15:15	31.0	31.0	31.0	70	22.4	0	2	292	0.00	30.076 
15:20	31.2	31.2	31.2	70	22.6	0	3	292	0.00	30.076 
15:25	31.3	31.3	31.3	70	22.7	0	2	292	0.00	30.076 
15:30	31.5	31.5	31.5	70	22.9	0	3	292	0.00	30.066 
15:35	31.5	31.5	31.5	70	22.9	1	3	292	0.00	30.066 
15:40	31.3	31.3	31.3	69	22.3	1	3	292	0.00	30.066 
15:45	31.2	31.2	31.2	71	22.9	1	5	315	0.00	30.062 
15:50	31.5	31.5	31.5	70	22.9	0	3	315	0.00	30.062 
15:55	31.6	31.6	31.6	70	23.0	1	3	315	0.00	30.062 
16:00	31.5	31.5	31.5	70	22.9	1	4	270	0.00	30.058 
16:05	31.3	31.3	31.3	70	22.7	0	2	270	0.00	30.058 
16:10	31.2	31.2	31.2	71	22.9	0	2	270	0.00	30.058 
16:15	31.2	31.2	31.2	71	22.9	0	2	270	0.00	30.054 
16:20	31.2	31.2	31.2	72	23.2	0	2	270	0.00	30.054 
16:25	31.0	31.0	31.0	71	22.7	1	3	270	0.00	30.054 
16:30	30.9	30.9	30.9	72	23.0	0	2	270	0.00	30.052 
16:35	30.9	30.9	30.9	72	23.0	0	4	270	0.00	30.052 
16:40	30.9	30.9	30.9	73	23.3	0	2	270	0.00	30.052 
16:45	30.9	30.9	30.9	73	23.3	0	2	270	0.00	30.050 
16:50	30.9	30.9	30.9	73	23.3	0	1	270	0.00	30.050 
16:55	30.9	30.9	30.9	73	23.3	0	2	270	0.00	30.050 
17:00	30.9	30.9	30.9	73	23.3	0	2	270	0.00	30.044 
17:05	30.7	30.7	30.7	73	23.1	0	3	270	0.00	30.044 
17:10	30.7	30.7	30.7	73	23.1	0	1	270	0.00	30.044 
17:15	30.7	30.7	30.7	74	23.4	0	1	270	0.00	30.040 
17:20	30.7	30.7	30.7	74	23.4	0	1	270	0.00	30.040 
17:25	30.7	30.7	30.7	74	23.4	0	1	270	0.00	30.040 
17:30	30.7	30.7	30.7	74	23.4	0	1	270	0.00	30.023 
17:35	30.6	30.6	30.6	74	23.3	0	2	270	0.00	30.023 
17:40	30.6	30.6	30.6	74	23.3	0	1	270	0.00	30.023 
17:45	30.4	30.4	30.4	74	23.1	0	3	270	0.00	30.016 
17:50	30.4	30.4	30.4	75	23.4	0	1	270	0.00	30.016 
17:55	30.3	30.3	30.3	75	23.3	0	1	270	0.00	30.016 
18:00	30.3	30.3	30.3	75	23.3	0	1	270	0.00	30.020 
18:05	30.3	30.3	30.3	75	23.3	0	1	270	0.00	30.020 
18:10	30.3	30.3	30.3	75	23.3	0	1	270	0.00	30.020 
18:15	30.3	30.3	30.3	75	23.3	0	1	270	0.00	30.012 
18:20	30.3	30.3	30.3	76	23.7	0	1	270	0.00	30.012 
18:25	30.3	30.3	30.3	76	23.7	0	1	270	0.00	30.012 
18:30	30.3	30.3	30.3	76	23.7	0	1	270	0.00	30.007 
18:35	30.3	30.3	30.3	76	23.7	0	0	---	0.00	30.007 
18:40	30.1	30.1	30.1	75	23.2	0	3	270	0.00	30.007 
18:45	30.1	30.1	30.1	75	23.2	0	2	270	0.00	30.001 
18:50	30.1	30.1	30.1	76	23.5	0	4	270	0.00	30.001 
18:55	30.1	30.1	30.1	75	23.2	0	1	270	0.00	30.001 
19:00	30.1	30.1	30.1	76	23.5	0	1	270	0.00	29.991 
19:05	30.1	30.1	30.1	76	23.5	0	0	---	0.00	29.991 
19:10	30.1	30.1	30.1	76	23.5	0	2	270	0.00	29.991 
19:15	30.1	30.1	30.1	76	23.5	0	2	270	0.00	29.982 
19:20	30.1	30.1	30.1	76	23.5	0	2	270	0.00	29.982 
19:25	30.0	30.0	30.0	76	23.4	0	0	---	0.00	29.982 
19:30	30.0	30.0	30.0	76	23.4	0	1	270	0.00	29.978 
19:35	30.0	30.0	30.0	77	23.7	0	1	270	0.00	29.978 
19:40	30.0	30.0	30.0	77	23.7	0	0	---	0.00	29.978 
19:45	30.0	30.0	30.0	77	23.7	0	2	270	0.00	29.981 
19:50	30.0	30.0	30.0	76	23.4	0	1	270	0.00	29.981 
19:55	29.8	29.8	29.8	77	23.5	0	1	270	0.00	29.981 
20:00	29.8	29.8	29.8	77	23.5	0	2	270	0.00	29.982 
20:05	29.8	29.8	29.8	76	23.2	0	2	270	0.00	29.982 
20:10	29.8	29.8	29.8	76	23.2	0	1	270	0.00	29.982 
20:15	29.8	29.8	29.8	77	23.5	0	2	270	0.00	29.981 
20:20	29.8	29.8	29.8	77	23.5	0	4	270	0.00	29.981 
20:25	29.7	29.7	29.7	77	23.4	0	2	270	0.00	29.981 
20:30	29.7	29.7	29.7	77	23.4	0	1	270	0.00	29.968 
20:35	29.7	29.7	29.7	77	23.4	0	2	270	0.00	29.968 
20:40	29.7	29.7	29.7	77	23.4	0	2	270	0.00	29.968 
20:45	29.7	29.7	29.7	77	23.4	0	2	270	0.00	29.966 
20:50	29.7	29.7	29.7	77	23.4	1	3	270	0.00	29.966 
20:55	29.7	29.7	29.7	77	23.4	0	3	270	0.00	29.966 
21:00	29.7	29.7	29.7	77	23.4	0	1	270	0.00	29.963 
21:05	29.7	29.7	29.7	77	23.4	0	1	270	0.00	29.963 
21:10	29.7	29.7	29.7	77	23.4	0	1	270	0.00	29.963 
21:15	29.7	29.7	29.7	77	23.4	0	2	270	0.00	29.952 
21:20	29.7	29.7	29.7	77	23.4	0	2	270	0.00	29.952 
21:25	29.7	29.7	29.7	77	23.4	1	4	270	0.00	29.952 
21:30	29.7	29.7	29.7	77	23.4	1	3	270	0.00	29.949 
21:35	29.7	29.7	29.7	77	23.4	0	3	270	0.00	29.949 
21:40	29.7	29.7	29.7	77	23.4	0	2	270	0.00	29.949 
21:45	29.7	29.7	29.7	77	23.4	0	1	270	0.00	29.937 
21:50	29.7	29.7	29.7	77	23.4	1	2	270	0.00	29.937 
21:55	29.5	29.5	29.5	77	23.2	0	2	270	0.00	29.937 
22:00	29.7	29.7	29.7	77	23.4	0	1	270	0.00	29.932 
22:05	29.7	29.7	29.7	77	23.4	0	1	270	0.00	29.932 
22:10	29.5	29.5	29.5	77	23.2	0	1	270	0.00	29.932 
22:15	29.5	29.5	29.5	77	23.2	0	2	270	0.00	29.916 
22:20	29.5	29.5	29.5	77	23.2	0	2	270	0.00	29.916 
22:25	29.5	29.5	29.5	78	23.5	0	3	270	0.00	29.916 
22:30	29.5	29.5	29.5	77	23.2	0	2	270	0.00	29.906 
22:35	29.4	29.4	29.4	77	23.1	1	2	270	0.00	29.906 
22:40	29.4	29.4	29.4	77	23.1	1	3	270	0.00	29.906 
22:45	29.4	29.4	29.4	77	23.1	1	3	270	0.00	29.899 
22:50	29.3	29.3	29.3	77	23.0	1	3	270	0.00	29.899 
22:55	29.3	29.3	29.3	77	23.0	1	3	270	0.00	29.899 
23:00	29.3	29.3	29.3	77	23.0	1	2	270	0.00	29.887 
23:05	29.1	29.1	29.1	77	22.8	1	3	270	0.00	29.887 
23:10	29.0	29.0	29.0	77	22.7	1	3	270	0.00	29.887 
23:15	29.0	29.0	29.0	77	22.7	0	2	270	0.00	29.886 
23:20	29.0	29.0	29.0	77	22.7	0	3	270	0.00	29.886 
23:25	29.0	29.0	29.0	77	22.7	1	4	270	0.00	29.886 
23:30	29.0	29.0	29.0	77	22.7	1	5	270	0.00	29.880 
23:35	29.0	29.0	29.0	77	22.7	0	2	270	0.00	29.880 
23:40	29.0	29.0	29.0	78	23.0	1	4	270	0.00	29.880 
23:45	29.0	29.0	29.0	78	23.0	1	4	270	0.00	29.872 
23:50	28.8	28.8	28.8	78	22.8	0	2	270	0.00	29.872 
23:55	28.8	28.8	28.8	78	22.8	1	3	270	0.00	29.872 

CoCoRaHS
IN-AL-39
A2 Web Hosting
Creative Commons License
GoDaddy
search engine by freefind advanced

loaded 2018-11-21 00:29:38 • last modified 2010-11-18 10:43:29
Privacy PolicyDisclaimer
• wx.awcolley.com is powered by PmWiki v.2002016 •
• all content (unless otherwise noted) © 2018 A W Colley